[Iaude] MPEC X127: 2023 XE3 [a=1.08,e=0.09,i=1.0,H=27.2]

mpec at marsden.cfa.harvard.edu mpec at marsden.cfa.harvard.edu
Thu Dec 7 06:50:58 EST 2023


M.P.E.C. 2023-X127                             Issued 2023 December 7, 11:49 UT

     The Minor Planet Electronic Circulars contain information on unusual
         minor planets, routine data on comets and natural satellites,
         and occasional editorial announcements.  They are published
    on behalf of Division F of the International Astronomical Union by the
          Minor Planet Center, Smithsonian Astrophysical Observatory,
                          Cambridge, MA 02138, U.S.A.
			  
             Prepared using the Tamkin Foundation Computer Network

                              MPC at CFA.HARVARD.EDU
            URL https://www.minorplanetcenter.net/    ISSN 1523-6714

                                    2023 XE3                                    


Observations:
     K23X03E*1C2023 12 06.30013603 36 15.822+04 56 16.55         20.44GVEX127G96
     K23X03E 1C2023 12 06.30576703 36 16.866+04 56 24.04         20.64GVEX127G96
     K23X03E 1C2023 12 06.31139703 36 17.946+04 56 32.89         20.97GVEX127G96
     K23X03E 1C2023 12 06.31704003 36 19.048+04 56 41.03         20.86GVEX127G96
     K23X03E  C2023 12 06.34965203 36 24.857+04 57 20.33         20.4 GVEX127H01
     K23X03E  C2023 12 06.35496603 36 25.941+04 57 27.98         21.2 GVEX127H01
     K23X03E  C2023 12 06.36512503 36 28.073+04 57 42.24         20.1 GVEX127H01
     K23X03E  C2023 12 06.37365903 36 29.874+04 57 54.13         20.4 GVEX127H01
     K23X03E KC2023 12 06.38402703 36 32.519+04 58 15.60         20.57GVEX127I52
     K23X03E KC2023 12 06.38783403 36 33.350+04 58 21.04         20.60GVEX127I52
     K23X03E KC2023 12 06.39203903 36 34.211+04 58 26.69         20.74GVEX127I52
     K23X03E KC2023 12 06.39506603 36 34.888+04 58 31.15         20.96GVEX127I52
     K23X03E KC2023 12 07.16644203 40 18.757+05 17 12.70         21.35GVEX127I52
     K23X03E |C2023 12 07.17539003 40 10.690+05 21 45.10         21.0 VuEX127807
     K23X03E |C2023 12 07.18193003 40 11.830+05 21 54.10         20.9 VuEX127807
     K23X03E |C2023 12 07.18848003 40 12.940+05 22 01.80         20.8 VuEX127807
     K23X03E KC2023 12 07.19696603 40 24.157+05 17 57.84         21.36GVEX127I52
     K23X03E KC2023 12 07.19957803 40 24.672+05 18 01.26         20.73GVEX127I52
     K23X03E KC2023 12 07.20289903 40 25.252+05 18 06.37         20.65GVEX127I52
     K23X03E KC2023 12 07.22337 03 40 28.96 +05 18 38.2                VEX127691
     K23X03E KC2023 12 07.22733 03 40 29.63 +05 18 43.6          21.6 RVEX127691
     K23X03E KB2023 12 07.22998 03 40 26.38 +05 18 20.7          20.9 GVEX127734
     K23X03E KC2023 12 07.23129 03 40 30.30 +05 18 49.1          21.8 RVEX127691
     K23X03E KB2023 12 07.24732 03 40 29.39 +05 18 45.1          21.2 GVEX127734

Observer details:
691 Steward Observatory, Kitt Peak-Spacewatch.  Observer R. A. Mastaler.
    0.9-m f/3 reflector + CCD.
734 Farpoint Observatory, Eskridge.  Observers D. Cromer, G. Hug, D. Goodin,
    R. Valentine.  Measurer G. Hug.  0.69-m f/3.54 reflector + CMO.
807 Cerro Tololo Observatory, La Serena.  Observers T. Linder, R. Holmes, L.
    Horn.  0.61-m f/11 Ritchey-Chretien + CCD.
G96 Mt. Lemmon Survey.  Observer J. K. Hogan.  Measurers E. C. Beshore, D.
    Fay, J. B. Fazekas, D. C. Fuls, A. R. Gibbs, A. D. Grauer, H. Groeller, J.
    K. Hogan, R. A. Kowalski, S. M. Larson, G. J. Leonard, D. Rankin, R. L.
    Seaman, F. C. Shelly, K. W. Wierzchos.  1.5-m reflector + 10K CCD.
H01 Magdalena Ridge Observatory, Socorro.  Observers W. H. Ryan, E. V. Ryan.
    Measurer W. H. Ryan.  2.4-m f/8.9 Ritchey-Chretien + CCD.
I52 Steward Observatory, Mt. Lemmon Station.  Observers G. J. Leonard, K. W.
    Wierzchos.  Measurers E. C. Beshore, D. Fay, J. B. Fazekas, D. C. Fuls, A.
    R. Gibbs, A. D. Grauer, H. Groeller, J. K. Hogan, R. A. Kowalski, S. M.
    Larson, G. J. Leonard, D. Rankin, R. L. Seaman, F. C. Shelly, K. W.
    Wierzchos.  1.0-m prime focus + CCD.

Orbital elements:
2023 XE3                                                 Earth MOID = 0.0005 AU
Epoch 2023 Sept. 13.0 TT = JDT 2460200.5                Veres                   
M 330.43587              (2000.0)            P               Q                  
n   0.87385490     Peri.  153.91978     +0.93671033     -0.34985267             
a   1.0835355      Node   226.56522     +0.31792765     +0.86591244             
e   0.0948480      Incl.    1.04942     +0.14661439     +0.35748952             
P   1.13           H   27.28          G   0.15           U   8                  
Residuals in seconds of arc
231206 G96  0.0   0.0     231206 I52  0.0   0.0     231207 I52  0.8-  0.2+
231206 G96 (0.3-  0.7-)   231206 I52  0.2+  0.2+    231207 I52  0.1+  0.2-
231206 G96  0.2-  0.1+    231206 I52  0.4-  0.0     231207 I52  0.2+  0.1+
231206 G96  0.2+  0.1+    231206 I52  0.2-  0.3+    231207 691  0.1+  0.7+
231206 H01  0.1+  0.3-    231207 I52  0.5-  0.2-    231207 691  0.1+  0.4+
231206 H01  0.0   0.1-    231207 807  0.0   0.0     231207 734  0.1+  0.3-
231206 H01  0.1+  0.1-    231207 807  0.4+  0.1+    231207 691  0.1+  0.3+
231206 H01  0.1-  0.1-    231207 807 (0.3+  1.2-)   231207 734  0.7-  0.0

Ephemeris:
2023 XE3                 a,e,i = 1.08, 0.09, 1                   q = 0.9808
Date    TT    R. A. (2000) Decl.     Delta      r    Elong.  Phase     V
2023 11 07    20 15 39.8 -16 19 58   0.01939 0.9875    78.5   100.4    22.3
...
2023 11 22    01 21 08.8 -05 45 52   0.01663 0.9998   135.8    43.5    20.1
...
2023 11 30    02 58 07.1 +01 43 01   0.02512 1.0085   151.7    27.7    20.5
...
2023 12 06    03 34 56.2 +04 50 46   0.03347 1.0159   155.2    24.0    21.1
2023 12 07    03 39 28.1 +05 15 12   0.03498 1.0172   155.5    23.7    21.2
2023 12 08    03 43 40.2 +05 38 15   0.03651 1.0186   155.6    23.5    21.2
...
2023 12 14    04 03 45.0 +07 35 55   0.04634 1.0268   155.5    23.4    21.8
...
2023 12 22    04 22 38.3 +09 40 36   0.06108 1.0387   153.4    25.1    22.4
...
2024 01 06    04 49 07.7 +12 46 13   0.09396 1.0629   146.4    30.8    23.6

M. P. C. Staff               (C) Copyright 2023 MPC           M.P.E.C. 2023-X127





More information about the Iaude mailing list